TITAN 3C TRANSTAGE DEB, 26050

Orbit data source: Space-Track

TITAN 3C TRANSTAGE DEB, 26050 is space debris in HEO originally from a launch on Tue, 21 Dec 1965 UTC launched from the Air Force Eastern Test Range (AFETR). Debris objects in space refer to the collection of defunct objects orbiting the Earth. Examples of debris include non-operational satellites, rocket bodies, and fragments generated from explosions, collisions, or faulty payload assembly.

Loading next visibility...
Identifier
26050, 1965-108AJ
Orbit
HEO
Country
Flag of USUS
Related business
Manufacturer
Unknown
Mission
Spacecraft
Bus & Motor
Unknown
Mass
Unknown
Launch date (UTC)
1965-12-21 (60 years ago)
Launch vehicle
Unknown
Launch site
Air Force Eastern Test Range (AFETR)
Object type
Payload
Rocket body
Debris
Shape & HBR
Unknown shape, 0.1 m
Radar Cross Section
Medium (>0.1 m² and <1 m²)

Expand to show TLE details & history
Last TLE update: 3 days ago

TLE from 3 days ago
0 TITAN 3C TRANSTAGE DEB
1 26050U 65108AJ  26117.48077724  .00000450  00000-0  27540-1 0  9997
2 26050  26.2614 249.4148 6633258 234.5301  44.6888  2.69835617264859
Epoch: 2026-04-27T11:32Z
TLE epoch observation values (Epoch: 2026-04-27T11:32:19.153Z)
Latitude
0.00002°
Longitude
-139.1709°
Altitude
13,479.024 km
Speed
4.675 km/s
True Right ascension
16h 37m 30s
True Declination
0° 00' 00"
Sunlit
Object was in daylight at epoch
Visualization orbit readout
Latitude
Unknown
Longitude
Unknown
Altitude
Unknown
Speed
Unknown
Apparent Right ascension
Unknown
Apparent Declination
Unknown
Sunlit
N/A
Visualization observer readout
Local Sidereal Time
18:35:57
Azimuth
Unknown
Elevation
Unknown
Doppler factor
Unknown
Orbital elements
Apogee altitude
29,877.966 km
Perigee altitude
960.47 km
Semi-major axis
21,797.355 km
Eccentricity
0.66333
Inclination
26.2614°
RAAN
249.4148°
Arg. of periapsis
234.5301°
True anomaly
125.56585°
Mean anomaly
44.6888°
Eccentric anomaly
82.35692°
Mean motion
0.67443 °/min
Orbital period
533.78 mins
BSTAR
0.02754
Loading maneuver chart data...
Computing Atmospheric mass density...

Documentation

Showing up to 5 results
|